Regional Weather Roundup
Issued by NWS Northern Indiana

Home | Current Version | Previous Version | Graphics & Text | Print | Product List | Glossary On
Versions: 1 2 3 4 5 6 7 8 9 10 11 12 13 14 15 16 17 18 19 20 21 22 23 24 25 26 27 28 29 30 31 32 33 34 35 36 37 38 39 40 41 42 43 44 45 46 47 48 49 50
000
ASUS43 KIWX 260400
RWRIWX

KIWX WEATHER ROUNDUP
NATIONAL WEATHER SERVICE NORTHERN INDIANA
1100 PM EST SUN JAN 25 2015

NOTE: "FAIR" INDICATES FEW OR NO CLOUDS BELOW 12,000 FEET WITH NO
SIGNIFICANT WEATHER AND/OR OBSTRUCTIONS TO VISIBILITY.

* THESE STATIONS ARE NOT UNDER NWS QUALITY CONTROL. THEY ALSO MAY NOT
  REPORT WEATHER SUCH AS PRECIPITATION OR FOG.

INZ001>027-260500-
NORTHERN INDIANA

CITY           SKY/WX    TMP DP  RH WIND       PRES   REMARKS
GARY*          CLOUDY    28  18  64 NE12G23   29.98S WCI  18
SOUTH BEND     MOCLDY    22  13  68 NE14      29.96R WCI   9
GOSHEN         CLOUDY    23  14  68 NE10      29.93R WCI  12
ANGOLA*        CLOUDY    19   9  63 NE10      29.89F WCI   8
FORT WAYNE     FLURRIES  19  14  81 NE16G24   29.90S WCI   4

$$
INZ028>050-260500-
CENTRAL INDIANA

CITY           SKY/WX    TMP DP  RH WIND       PRES   REMARKS
LAFAYETTE      CLOUDY    25  21  85 NE9       29.91R WCI  15
KOKOMO*        CLOUDY    21  18  86 NE16      29.88R WCI   7
MUNCIE*        LGT SNOW  20  16  84 NE15G26   29.83R FOG     WCI   6
INDIANAPOLIS   FLURRIES  21  18  88 NE18G31   29.82R WCI   6

$$
MIZ043>046-050>051-056>058-064>065-071>073-077>080-260500-
SOUTHWEST LOWER MICHIGAN

CITY           SKY/WX    TMP DP  RH WIND       PRES   REMARKS
BATTLE CREEK   PTCLDY    19   7  59 NE14G24   29.96S WCI   6
BENTON HARBOR  PTCLDY    18  11  74 NE7       29.98S WCI   9
COLDWATER*     CLOUDY    19   7  59 NE14G20   29.94R WCI   6
HILLSDALE*     CLOUDY    18   7  62 NE7       29.91R WCI   9
HOLLAND        PTCLDY    19  10  68 NE8       30.01S WCI   9
GRAND RAPIDS   CLOUDY    17  11  77 E7        30.01R WCI   8
KALAMAZOO      PTCLDY    18  10  71 NE10      29.98R WCI   6
STURGIS*       MOCLDY    19  10  68 NE10      29.94R WCI   8
THREE RIVERS*  FAIR      19   5  53 NE12G18   29.96R WCI   7

$$
OHZ001>008-015>018-024>025-260500-
NORTHWEST OHIO

CITY           SKY/WX    TMP DP  RH WIND       PRES   REMARKS
DEFIANCE       LGT SNOW  19  13  77 NE12      29.92S WCI   7
FINDLAY        LGT SNOW  19  14  81 NE20G25   29.86F WCI   3
TOLEDO EXPRESS CLOUDY    19   8  62 NE15      29.94R WCI   5
TOLEDO METCALF CLOUDY    18   7  62 NE14G20   29.95S WCI   4
LIMA           LGT SNOW  20  16  84 NE17      29.83S FOG     WCI   5

$$
AND FOR LAKE MICHIGAN COASTAL AND OPEN LAKE BUOY OBSERVATIONS

STATION/POSITION TEMP    WIND        PRES    VSBY  WAVE
                 AIR SEA DIR/SP/G                  HT/PER
                 (F)     (DEG/KT/KT) (MB)    (MI)  (FT/S)
CALUMET HARBOR    26      30/ 16/ 20   N/A
MICHIGAN CITY     25      20/ 16/ 19   N/A
SAINT JOSEPH      20      20/  4/ 15 1015.2F

$$
&&


USA.gov is the U.S. government's official web portal to all federal, state and local government web resources and services.